Location: Newark
(49.3000°N, 9.4667°E)
Time: 14:41:41
(UTC+00:00)

S-56A Canister/Altair - Pass Details

Date: 28 May 2019
Orbit: 633 x 2499 km, 38.9° (Epoch: 18 June)

Event Time Altitude Azimuth Distance (km) Brightness Sun altitude
Exits shadow 23:13:53 19° 131° (SE) 2,105 9.4 -19.2°
Drops below altitude 10° 23:17:03 10° 106° (ESE) 2,928 10.3 -19.2°
Sets 23:21:03 0° 92° (E) 4,241 11.3 -19.2°
